Location: Crocus Hill
(18.2167°N, 63.0667°W)
Time: 03:28:52
(UTC+00:00)

GPS 2-04 Rocket1 - Pass Details

Date: 26 January 2020
Orbit: 419 x 551 km, 35.6° (Epoch: 18 February)

Event Time Altitude Azimuth Distance (km) Brightness Sun altitude
Exits shadow 10:04:36 - 234° (SW) 2,030 5.4 -10.3°
Reaches altitude 10° 10:05:53 10° 233° (SW) 1,508 4.7 -10.0°
Maximum altitude 10:09:18 78° 147° (SSE) 446 2.4 -9.3°
Drops below altitude 10° 10:12:52 10° 60° (ENE) 1,567 5.8 -8.5°
Sets 10:15:05 0° 59° (ENE) 2,464 6.8 -8.0°
